Location: Blacksburg
(37.2290°N, 80.4140°W)
Time: 23:07:52
(UTC-05:00)

ISS - Visible Passes

Search period start: 10 November 2024 00:00
Search period end: 20 November 2024 00:00
Orbit: 407 x 418 km, 51.6° (Epoch: 11 November)

Date Brightness Start Highest point End Pass type
(mag) Time Alt. Az. Time Alt. Az. Time Alt. Az.
11 Nov -2.2 18:44:44 10° SSW 18:46:46 24° SSE 18:46:46 24° SSE visible
12 Nov -1.7 17:56:11 10° SSE 17:58:04 14° SE 17:59:34 11° E visible
12 Nov -1.2 19:31:09 10° WSW 19:32:25 21° WSW 19:32:25 21° WSW visible
13 Nov -3.9 18:41:19 10° SW 18:44:39 85° SE 18:45:05 65° ENE visible
14 Nov -3.2 17:51:45 10° SSW 17:54:55 42° SE 17:57:36 13° ENE visible
14 Nov -1.1 19:29:01 10° W 19:30:25 18° WNW 19:30:25 18° WNW visible
15 Nov -2.5 18:38:37 10° WSW 18:41:42 34° NW 18:42:48 26° N visible
16 Nov -3.4 17:48:26 10° WSW 17:51:44 62° NW 17:55:03 10° NE visible
16 Nov -0.7 19:27:26 10° NW 19:27:53 11° NW 19:27:53 11° NW visible
17 Nov -1.5 18:36:26 10° WNW 18:38:44 17° NNW 18:40:02 14° N visible
18 Nov -2.0 17:45:44 10° W 17:48:34 25° NNW 17:51:25 10° NNE visible
19 Nov -1.0 18:35:08 10° NNW 18:35:47 10° NNW 18:36:24 10° N visible
